sat.trackr.live / text

‹ back to catalog

WESTPAC

NORAD 25398 · 1998-043E

PAYLOAD ACTIVE UNKNOWN

§ Identity

Operator
Country
AUS
Launch date
1998-07-10
Launch site
TYMSC
Launch vehicle
Mass (kg)
RCS (m²)
0.17

External: N2YO · Heavens-Above · Gunter

§ Orbital elements

Epoch: 2026-05-25T04:56:05.135136Z

Period
101.19 min
Inclination
99.0127°
Eccentricity
0.0000333
Mean motion
14.23051891 rev/d
Perigee alt
814.8 km
Apogee alt
815.3 km
Semi-major
7,193.2 km
B*
1.4769e-5
RAAN
130.7112°
Arg perigee
302.1278°
Mean anomaly
57.9867°
Rev number
44,767

§ Raw data

WESTPAC1 25398U 98043E   26145.20561499 -.00000013  00000+0  14769-4 0  99902 25398  99.0127 130.7112 0000333 302.1278  57.9867 14.23051891447678

JSON: /api/v1/satellites/25398 · /tle

For live sub-satellite position, see the globe view (requires WebGL).

§ Visibility from observer

Set your observer location to see the next 7 days of passes ≥ 10°. The values pass through the URL so the page stays shareable.

No JS? Fill the form by hand. The geolocation button needs JavaScript.